This is the latest recevied weather packets stored in our database for station/object KM8V-8. If no packets are shown the sender has not sent any weather packets the latest 10 day(s).
| Time | Temp. | Humidity | Pressure | Rain* | Wind** | Luminosity | Snow |
|---|---|---|---|---|---|---|---|
| 1777744823 | 7.22° C | 59% | 1016.9 hPa | 0 mm | - | 824 W/m² | - |
| 1777744523 | 7.78° C | 59% | 1016.9 hPa | 0 mm | - | 967 W/m² | - |
| 1777744224 | 7.22° C | 60% | 1017 hPa | 0 mm | - | 979 W/m² | - |
| 1777743919 | 7.22° C | 59% | 1017 hPa | 0 mm | - | 781 W/m² | - |
| 1777743618 | 7.22° C | 61% | 1017 hPa | 0 mm | - | 746 W/m² | - |
| 1777743317 | 7.22° C | 60% | 1017 hPa | 0 mm | - | 1007 W/m² | - |
| 1777743024 | 7.22° C | 62% | 1017.1 hPa | 0 mm | - | 1029 W/m² | - |
| 1777742724 | 7.22° C | 63% | 1017.1 hPa | 0 mm | - | 820 W/m² | - |
| 1777742425 | 7.22° C | 65% | 1017.2 hPa | 0 mm | - | 767 W/m² | - |
| 1777742124 | 7.22° C | 63% | 1017.1 hPa | 0 mm | - | 697 W/m² | - |
| 1777741824 | 7.22° C | 66% | 1017.2 hPa | 0 mm | - | 747 W/m² | - |
| 1777741518 | 6.67° C | 65% | 1017.2 hPa | 0 mm | - | 948 W/m² | - |
| 1777741224 | 6.67° C | 65% | 1017.3 hPa | 0 mm | - | 865 W/m² | - |
| 1777740924 | 6.67° C | 66% | 1017.3 hPa | 0 mm | - | 492 W/m² | - |
| 1777740624 | 6.67° C | 66% | 1017.4 hPa | 0 mm | - | 628 W/m² | - |
| 1777740325 | 6.67° C | 67% | 1017.4 hPa | 0 mm | - | 861 W/m² | - |
| 1777740019 | 6.11° C | 67% | 1017.5 hPa | 0 mm | - | 776 W/m² | - |
| 1777739726 | 6.11° C | 68% | 1017.5 hPa | 0 mm | - | 723 W/m² | - |
| 1777739425 | 6.11° C | 70% | 1017.6 hPa | 0 mm | - | 827 W/m² | - |
| 1777739125 | 5.56° C | 71% | 1017.6 hPa | 0 mm | - | 530 W/m² | - |
| 1777738825 | 5.56° C | 71% | 1017.6 hPa | 0 mm | - | 396 W/m² | - |
| 1777738525 | 5.56° C | 69% | 1017.6 hPa | 0 mm | - | 540 W/m² | - |
| 1777738219 | 5.56° C | 72% | 1017.7 hPa | 0 mm | - | 686 W/m² | - |
| 1777737925 | 5° C | 73% | 1017.7 hPa | 0 mm | - | 394 W/m² | - |
| 1777737625 | 5° C | 74% | 1017.7 hPa | 0 mm | - | 432 W/m² | - |
* Rain latest hour (hover to see other rain measurements)
** Current wind speed in m/s (hover to see current wind gust speed)